TimeEDT,TemperatureF,Dew PointF,Humidity,Sea Level PressureIn,VisibilityMPH,Wind Direction,Wind SpeedMPH,Gust SpeedMPH,PrecipitationIn,Events,Conditions,WindDirDegrees,DateUTC
12:15 AM,53.6,51.8,94,29.52,1.5,East,5.8,-,N/A,,Overcast,90,2012-10-31 04:15:00
12:35 AM,53.6,51.8,94,29.51,0.2,Calm,Calm,-,N/A,,Overcast,0,2012-10-31 04:35:00
12:55 AM,53.6,51.8,94,29.51,0.2,Calm,Calm,-,N/A,,Overcast,0,2012-10-31 04:55:00
1:15 AM,53.6,51.8,94,29.51,0.2,Calm,Calm,-,N/A,,Overcast,0,2012-10-31 05:15:00
1:35 AM,51.8,48.2,88,29.49,0.2,Calm,Calm,-,N/A,,Overcast,0,2012-10-31 05:35:00
1:55 AM,51.8,48.2,88,29.50,0.2,Calm,Calm,-,N/A,,Overcast,0,2012-10-31 05:55:00
2:15 AM,51.8,50.0,94,29.50,0.8,NNE,3.5,-,N/A,,Mostly Cloudy,30,2012-10-31 06:15:00
2:35 AM,53.6,51.8,94,29.49,10.0,ENE,9.2,-,0.01,,Partly Cloudy,70,2012-10-31 06:35:00
2:55 AM,53.6,51.8,94,29.49,10.0,East,5.8,-,0.01,,Mostly Cloudy,90,2012-10-31 06:55:00
3:15 AM,53.6,51.8,94,29.48,10.0,East,8.1,-,N/A,,Mostly Cloudy,80,2012-10-31 07:15:00
3:35 AM,51.8,48.2,88,29.47,10.0,East,6.9,-,N/A,,Partly Cloudy,90,2012-10-31 07:35:00
3:55 AM,51.8,48.2,88,29.47,8.0,Calm,Calm,-,N/A,,Clear,0,2012-10-31 07:55:00
4:15 AM,50.0,48.2,94,29.48,5.0,Calm,Calm,-,N/A,,Mostly Cloudy,0,2012-10-31 08:15:00
4:35 AM,50.0,48.2,94,29.47,10.0,Calm,Calm,-,N/A,,Mostly Cloudy,0,2012-10-31 08:35:00
4:55 AM,48.2,46.4,93,29.46,0.5,Calm,Calm,-,N/A,,Unknown,0,2012-10-31 08:55:00
5:15 AM,48.2,46.4,93,29.47,1.5,Calm,Calm,-,N/A,,Mostly Cloudy,0,2012-10-31 09:15:00
5:35 AM,50.0,48.2,94,29.47,3.0,Calm,Calm,-,N/A,,Mostly Cloudy,0,2012-10-31 09:35:00
5:55 AM,50.0,46.4,87,29.48,2.0,SSW,4.6,-,N/A,,Mostly Cloudy,200,2012-10-31 09:55:00
6:15 AM,51.8,50.0,94,29.49,3.0,SSW,4.6,-,N/A,,Mostly Cloudy,210,2012-10-31 10:15:00
6:35 AM,51.8,48.2,88,29.49,10.0,SW,3.5,-,N/A,,Mostly Cloudy,220,2012-10-31 10:35:00
6:55 AM,51.8,48.2,88,29.50,10.0,SSW,4.6,-,N/A,,Partly Cloudy,210,2012-10-31 10:55:00
7:15 AM,51.8,48.2,88,29.50,10.0,SSW,3.5,-,N/A,,Scattered Clouds,210,2012-10-31 11:15:00
7:35 AM,51.8,48.2,88,29.50,10.0,SW,4.6,-,N/A,,Overcast,220,2012-10-31 11:35:00
7:55 AM,51.8,48.2,88,29.51,10.0,SW,6.9,-,N/A,,Overcast,220,2012-10-31 11:55:00
8:15 AM,51.8,46.4,82,29.51,10.0,SSW,3.5,-,N/A,,Overcast,200,2012-10-31 12:15:00
8:35 AM,51.8,46.4,82,29.51,10.0,SSW,5.8,-,N/A,,Overcast,210,2012-10-31 12:35:00
8:55 AM,51.8,46.4,82,29.52,10.0,SSW,5.8,-,N/A,,Overcast,210,2012-10-31 12:55:00
9:15 AM,51.8,46.4,82,29.53,10.0,SSW,5.8,-,N/A,,Overcast,200,2012-10-31 13:15:00
9:35 AM,51.8,44.6,76,29.53,10.0,SSW,3.5,-,N/A,,Overcast,210,2012-10-31 13:35:00
9:55 AM,51.8,44.6,76,29.53,10.0,SSW,5.8,-,N/A,,Overcast,210,2012-10-31 13:55:00
10:15 AM,50.0,44.6,82,29.53,10.0,WSW,3.5,-,N/A,,Overcast,250,2012-10-31 14:15:00
10:35 AM,51.8,44.6,76,29.54,10.0,SSW,3.5,-,N/A,,Overcast,200,2012-10-31 14:35:00
10:55 AM,51.8,44.6,76,29.54,10.0,SW,4.6,-,N/A,,Mostly Cloudy,220,2012-10-31 14:55:00
11:15 AM,51.8,42.8,71,29.54,10.0,SW,3.5,-,N/A,,Overcast,220,2012-10-31 15:15:00
11:35 AM,51.8,44.6,76,29.53,10.0,SSW,3.5,-,N/A,,Mostly Cloudy,200,2012-10-31 15:35:00
11:55 AM,53.6,42.8,67,29.54,10.0,SSW,4.6,-,N/A,,Mostly Cloudy,200,2012-10-31 15:55:00
12:15 PM,53.6,44.6,72,29.53,10.0,WSW,4.6,-,N/A,,Overcast,240,2012-10-31 16:15:00
12:35 PM,51.8,42.8,71,29.54,10.0,SW,5.8,-,N/A,,Overcast,220,2012-10-31 16:35:00
12:55 PM,51.8,42.8,71,29.53,10.0,SW,5.8,-,N/A,,Overcast,220,2012-10-31 16:55:00
1:15 PM,51.8,42.8,71,29.53,10.0,Calm,Calm,-,N/A,,Overcast,0,2012-10-31 17:15:00
1:35 PM,51.8,42.8,71,29.52,10.0,SW,3.5,-,N/A,,Overcast,230,2012-10-31 17:35:00
1:55 PM,53.6,42.8,67,29.52,10.0,South,4.6,-,N/A,,Overcast,180,2012-10-31 17:55:00
2:15 PM,53.6,42.8,67,29.52,10.0,SSE,3.5,-,N/A,,Overcast,160,2012-10-31 18:15:00
2:55 PM,51.8,42.8,71,29.52,10.0,SW,5.8,-,N/A,,Overcast,220,2012-10-31 18:55:00
3:15 PM,51.8,42.8,71,29.52,10.0,SSW,4.6,-,N/A,,Overcast,200,2012-10-31 19:15:00
3:35 PM,53.6,42.8,67,29.53,10.0,SSW,4.6,-,N/A,,Overcast,200,2012-10-31 19:35:00
3:55 PM,51.8,42.8,71,29.53,10.0,SSW,6.9,-,N/A,,Overcast,210,2012-10-31 19:55:00
4:15 PM,51.8,42.8,71,29.53,10.0,SSW,4.6,-,N/A,,Overcast,210,2012-10-31 20:15:00
4:35 PM,51.8,41.0,67,29.53,10.0,SSW,5.8,-,N/A,,Overcast,200,2012-10-31 20:35:00
4:55 PM,51.8,41.0,67,29.53,10.0,SSW,4.6,-,N/A,,Overcast,200,2012-10-31 20:55:00
5:15 PM,51.8,41.0,67,29.53,10.0,South,4.6,-,N/A,,Overcast,170,2012-10-31 21:15:00
5:35 PM,50.0,39.2,66,29.53,10.0,South,3.5,-,N/A,,Mostly Cloudy,190,2012-10-31 21:35:00
5:55 PM,48.2,39.2,71,29.53,10.0,SSW,5.8,-,N/A,,Partly Cloudy,210,2012-10-31 21:55:00
6:15 PM,48.2,39.2,71,29.54,10.0,South,4.6,-,N/A,,Partly Cloudy,190,2012-10-31 22:15:00
6:35 PM,48.2,39.2,71,29.54,10.0,Calm,Calm,-,N/A,,Partly Cloudy,0,2012-10-31 22:35:00
6:56 PM,46.4,39.2,76,29.54,10.0,SSW,3.5,-,N/A,,Clear,200,2012-10-31 22:56:00
7:15 PM,46.4,41.0,81,29.55,10.0,South,3.5,-,N/A,,Clear,190,2012-10-31 23:15:00
7:35 PM,46.4,41.0,81,29.55,10.0,SSW,3.5,-,N/A,,Clear,200,2012-10-31 23:35:00
7:55 PM,46.4,41.0,81,29.55,10.0,SSW,5.8,-,N/A,,Mostly Cloudy,210,2012-10-31 23:55:00
8:15 PM,46.4,39.2,76,29.56,10.0,SSW,3.5,-,N/A,,Scattered Clouds,200,2012-11-01 00:15:00
8:35 PM,46.4,39.2,76,29.56,10.0,South,3.5,-,N/A,,Clear,190,2012-11-01 00:35:00
8:55 PM,46.4,41.0,81,29.56,10.0,SSW,4.6,-,N/A,,Clear,210,2012-11-01 00:55:00
9:15 PM,46.4,41.0,81,29.56,10.0,SSW,3.5,-,N/A,,Mostly Cloudy,210,2012-11-01 01:15:00
9:35 PM,46.4,39.2,76,29.57,10.0,SSW,4.6,-,N/A,,Overcast,200,2012-11-01 01:35:00
9:55 PM,46.4,39.2,76,29.57,10.0,SSW,3.5,-,N/A,,Overcast,200,2012-11-01 01:55:00
10:15 PM,46.4,39.2,76,29.57,10.0,SSW,3.5,-,N/A,,Overcast,200,2012-11-01 02:15:00
10:35 PM,46.4,39.2,76,29.57,10.0,SW,4.6,-,N/A,,Overcast,220,2012-11-01 02:35:00
10:55 PM,46.4,39.2,76,29.56,10.0,Calm,Calm,-,N/A,,Mostly Cloudy,0,2012-11-01 02:55:00
11:15 PM,44.6,39.2,81,29.56,10.0,Calm,Calm,-,N/A,,Mostly Cloudy,0,2012-11-01 03:15:00
11:35 PM,44.6,39.2,81,29.57,10.0,Calm,Calm,-,N/A,,Overcast,0,2012-11-01 03:35:00